| time (UTC) | temp F | wind direction | speed knots | gust knots | rain 1hr in | rain 24hr in | rain mn in | humidity % | barometer mb |
| 20260504081534 | 40 | 146 | 0.9 | 7.0 | 0.00 | 0.00 | 0.00 | 90 | 1009.6 |
| 20260504050007 | 40 | 197 | 0.0 | 5.2 | 0.00 | 0.00 | 0.00 | 65 | 1010.2 |
| 20260504044504 | 41 | 150 | 1.7 | 6.1 | 0.00 | 0.00 | 0.00 | 61 | 1010.4 |
| 20260504043002 | 41 | 190 | 0.9 | 3.5 | 0.00 | 0.00 | 0.00 | 58 | 1010.5 |
| 20260504041500 | 41 | 176 | 1.7 | 3.5 | 0.00 | 0.00 | 0.00 | 59 | 1010.7 |
| 20260504040124 | 40 | 190 | 1.7 | 5.2 | 0.00 | 0.00 | 0.00 | 59 | 1010.7 |
| 20260504034557 | 40 | 244 | 0.9 | 2.6 | 0.00 | 0.00 | 0.00 | 59 | 1010.6 |
| 20260504033101 | 39 | 186 | 0.9 | 4.3 | 0.00 | 0.00 | 0.00 | 59 | 1010.6 |
| 20260504031559 | 36 | 175 | 0.9 | 5.2 | 0.00 | 0.00 | 0.00 | 68 | 1010.4 |
| 20260504030057 | 35 | 173 | 1.7 | 2.6 | 0.00 | 0.00 | 0.00 | 70 | 1010.5 |
| 20260504024556 | 34 | 173 | 0.9 | 2.6 | 0.00 | 0.00 | 0.00 | 73 | 1010.5 |
| 20260504023100 | 35 | 174 | 0.9 | 2.6 | 0.00 | 0.00 | 0.00 | 72 | 1010.7 |
| 20260504021553 | 35 | 174 | 0.9 | 2.6 | 0.00 | 0.00 | 0.00 | 74 | 1010.8 |
| 20260504020052 | 35 | 174 | 0.9 | 2.6 | 0.00 | 0.00 | 0.00 | 71 | 1010.9 |
| 20260504014604 | 35 | 234 | 0.9 | 2.6 | 0.00 | 0.00 | 0.00 | 70 | 1011.0 |
| 20260504013054 | 35 | 234 | 0.9 | 2.6 | 0.00 | 0.00 | 0.00 | 72 | 1010.9 |
| 20260504011550 | 36 | 252 | 0.9 | 2.6 | 0.00 | 0.00 | 0.00 | 71 | 1010.6 |
| 20260504010053 | 36 | 252 | 0.9 | 2.6 | 0.00 | 0.00 | 0.00 | 72 | 1010.6 |
| 20260504004552 | 36 | 252 | 0.9 | 1.7 | 0.00 | 0.00 | 0.00 | 72 | 1010.5 |
| 20260504003055 | 37 | 252 | 0.9 | 2.6 | 0.00 | 0.00 | 0.00 | 68 | 1010.5 |
| 20260504001601 | 39 | 252 | 0.0 | 1.7 | 0.00 | 0.00 | 0.00 | 65 | 1010.2 |
| 20260504000047 | 40 | 252 | 0.0 | 0.0 | 0.00 | 0.00 | 0.00 | 65 | 1010.2 |
| 20260503234544 | 41 | 252 | 0.0 | 0.0 | 0.00 | 0.00 | 0.00 | 65 | 1010.1 |
| 20260503233044 | 42 | 252 | 0.0 | 0.9 | 0.00 | 0.00 | 0.00 | 64 | 1010.1 |
| 20260503231541 | 42 | 252 | 0.0 | 1.7 | 0.00 | 0.00 | 0.00 | 64 | 1010.0 |
| 20260503230041 | 43 | 252 | 0.0 | 2.6 | 0.00 | 0.00 | 0.00 | 57 | 1010.0 |
| 20260503224540 | 43 | 296 | 0.0 | 2.6 | 0.00 | 0.00 | 0.00 | 55 | 1010.0 |
| 20260503223038 | 43 | 298 | 0.9 | 5.2 | 0.00 | 0.00 | 0.00 | 54 | 1010.0 |
| 20260503221539 | 44 | 281 | 0.9 | 6.1 | 0.00 | 0.00 | 0.00 | 52 | 1009.9 |
| 20260503220037 | 44 | 259 | 1.7 | 5.2 | 0.00 | 0.00 | 0.00 | 53 | 1009.9 |
| 20260503214537 | 44 | 323 | 1.7 | 4.3 | 0.00 | 0.00 | 0.00 | 53 | 1009.7 |
| 20260503213033 | 43 | 219 | 1.7 | 4.3 | 0.00 | 0.00 | 0.00 | 54 | 1009.9 |
| 20260503211533 | 43 | 288 | 0.9 | 3.5 | 0.00 | 0.00 | 0.00 | 54 | 1009.7 |
| 20260503210031 | 43 | 311 | 0.9 | 3.5 | 0.00 | 0.00 | 0.00 | 56 | 1009.7 |
| 20260503204531 | 43 | 306 | 1.7 | 4.3 | 0.00 | 0.00 | 0.00 | 57 | 1009.7 |
| 20260503203100 | 43 | 244 | 0.9 | 7.0 | 0.00 | 0.00 | 0.00 | 58 | 1009.7 |
| 20260503201558 | 43 | 360 | 2.6 | 7.0 | 0.00 | 0.00 | 0.00 | 56 | 1009.7 |
| 20260503200059 | 42 | 284 | 1.7 | 4.3 | 0.00 | 0.00 | 0.00 | 59 | 1009.9 |
| 20260503194555 | 42 | 302 | 1.7 | 7.0 | 0.00 | 0.00 | 0.00 | 60 | 1010.2 |
| 20260503193059 | 42 | 318 | 1.7 | 8.7 | 0.00 | 0.00 | 0.00 | 60 | 1010.1 |
| 20260503191603 | 42 | 303 | 3.5 | 7.8 | 0.00 | 0.00 | 0.00 | 60 | 1010.4 |
| 20260503190048 | 41 | 300 | 3.5 | 7.0 | 0.00 | 0.00 | 0.00 | 61 | 1010.4 |
| 20260503184547 | 41 | 297 | 2.6 | 7.0 | 0.00 | 0.00 | 0.00 | 61 | 1010.5 |
| 20260503183107 | 41 | 329 | 1.7 | 3.5 | 0.00 | 0.00 | 0.00 | 61 | 1010.6 |
| 20260503181613 | 42 | 28 | 1.7 | 5.2 | 0.00 | 0.00 | 0.00 | 60 | 1010.5 |
| 20260503180043 | 41 | 324 | 2.6 | 7.8 | 0.00 | 0.00 | 0.00 | 60 | 1010.5 |
| 20260503174543 | 41 | 346 | 2.6 | 7.0 | 0.00 | 0.00 | 0.00 | 60 | 1010.5 |
| 20260503173045 | 41 | 286 | 2.6 | 7.8 | 0.00 | 0.00 | 0.00 | 60 | 1010.6 |
| 20260503171540 | 41 | 295 | 4.3 | 7.0 | 0.00 | 0.00 | 0.00 | 61 | 1010.6 |
| 20260503150106 | 42 | 324 | 1.7 | 6.1 | 0.00 | 0.00 | 0.00 | 60 | 1011.2 |